カタログに戻る

CZ-6A DEB

運用中PO
NORAD 55231·DEBRIS·🇨🇳 China

打ち上げ Nov 11, 2022 から Taiyuan Satellite Launch Center

Loading…

次のパス (今後24時間)

TLE

最新Source: Space-Track

元期: Sep 11, 2026, 05:33 UTC

1 55231U 22151WY  26254.23164705  .00006652  00000-0  83768-3 0  9998
2 55231  98.6208 340.7059 0068682 313.8113  45.7430 14.80723784198420

AllMySatでCZ-6A DEBをリアルタイム追跡

Download on the App Store